Temp
-5 -6 -9 -6 -7 -7 -8 -9 -9 -8 -6 -7 -7 -7 -7 -7 -7 -8 -9 -8 -8 -8 -7 -7 -8 -7 -7 -7 -7 -7 -6 -7 -7 -6 -7 -7 -7 -7 -7 -7 -7 -7 -7 -7
-5 -6 -6 -7 -7 -7 -7 -8 -9 -7 -6 -6 -7 -7 -7 -7 -7 -8 -8 -7 -8 -8 -7 -6 -7 -7 -8 -7 -8 -7 -7 -6 -6 -7 -7 -7 -7 -7 -7 -7 -8 -7 -7 -7
-5 -7 -6 -7 -7 -8 -9 -8 -7 -7 -6 -7 -7 -7 -7 -7 -7 -7 -7 -8 -8 -7 -8 -7 -7 -8 -8 -8 -8 -8 -7 -7 -7 -6 -6 -7 -7 -7 -7 -7 -7 -7 -7 -7
-6 -6 -6 -7 -7 -7 -9 -7 -7 -7 -7 -8 -7 -7 -7 -7 -7 -7 -8 -8 -8 -7 -7 -8 -7 -7 -8 -8 -8 -8 -8 -8 -7 -7 -7 -7 -7 -7 -7 -7 -7 -7 -7 -7
-6 -6 -7 -7 -8 -7 -9 -7 -7 -7 -7 -7 -7 -7 -7 -7 -7 -7 -8 -8 -8 -8 -8 -8 -7 -8 -8 -8 -8 -8 -8 -8 -7 -7 -8 -8 -8 -7 -7 -7 -7 -7 -7 -7
-6 -6 -7 -7 -7 -7 -7 -7 -7 -7 -8 -8 -7 -7 -8 -8 -8 -8 -8 -8 -8 -8 -8 -8 -8 -8 -8 -8 -8 -8 -8 -8 -8 -8 -8 -7 -8 -7 -7 -7 -7 -7 -7 -7
-6 -7 -7 -7 -8 -8 -8 -9 -8 -8 -8 -7 -8 -8 -8 -8 -8 -8 -8 -8 -8 -8 -8 -8 -8 -8 -8 -9 -8 -8 -8 -8 -8 -8 -8 -8 -8 -8 -8 -7 -7 -7 -7 -7
-8 -8 -8 -8 -8 -9 -9 -9 -8 -8 -8 -8 -9 -8 -8 -8 -8 -8 -8 -8 -8 -8 -8 -8 -8 -8 -8 -9 -9 -8 -8 -8 -8 -8 -8 -8 -8 -7 -8 -8 -8 -7 -7 -7
-8 -9 -8 -8 -8 -9 -9 -9 -9 -8 -9 -8 -8 -9 -8 -8 -8 -8 -8 -9 -9 -9 -9 -9 -8 -8 -9 -9 -9 -9 -9 -8 -8 -8 -8 -8 -9 -8 -8 -8 -8 -8 -8 -7
-8 -9 -9 -8 -9 -9 -9 -9 -9 -9 -8 -8 -8 -9 -9 -8 -8 -8 -8 -8 -9 -9 -9 -9 -9 -9 -8 -9 -9 -9 -9 -9 -8 -8 -9 -8 -9 -8 -8 -8 -9 -8 -8 -7
-9 -9 -9 -9 -9 -9 -9 -9 -9 -9 -9 -9 -9 -8 -8 -7 -7 -8 -8 -8 -8 -8 -9 -9 -9 -9 -9 -9 -9 -9 -10 -9 -9 -9 -9 -9 -9 -9 -9 -9 -8 -8 -8 -8
-9 -10 -9 -10 -8 -9 -9 -9 -10 -9 -9 -9 -8 -8 -7 -7 -7 -7 -8 -8 -8 -9 -9 -9 -9 -9 -10 -9 -10 -10 -10 -9 -9 -10 -10 -10 -9 -8 -8 -9 -8 -8 -9 -8
-9 -10 -9 -9 -9 -9 -9 -9 -9 -9 -9 -8 -8 -9 -7 -7 -7 -7 -7 -8 -8 -8 -9 -9 -9 -10 -10 -10 -10 -10 -10 -10 -9 -9 -9 -9 -9 -9 -8 -9 -10 -8 -8 -8
-10 -10 -10 -9 -9 -9 -8 -8 -8 -8 -8 -10 -10 -8 -7 -7 -6 -7 -7 -8 -8 -8 -8 -9 -9 -10 -10 -10 -10 -10 -10 -10 -10 -10 -10 -9 -10 -9 -9 -9 -9 -8 -8 -8
-10 -10 -9 -9 -9 -9 -8 -8 -7 -7 -8 -8 -8 -7 -7 -7 -7 -7 -7 -8 -8 -8 -8 -9 -10 -10 -9 -10 -10 -10 -10 -10 -10 -10 -10 -10 -10 -10 -9 -9 -9 -8 -8 -8
-9 -8 -8 -8 -8 -8 -7 -7 -8 -8 -7 -7 -7 -7 -7 -7 -7 -8 -8 -8 -9 -9 -9 -9 -10 -10 -10 -10 -10 -10 -10 -10 -10 -10 -10 -10 -10 -11 -10 -8 -7 -4 -8 -8
-8 -8 -7 -7 -8 -7 -7 -7 -8 -8 -7 -7 -8 -7 -8 -8 -8 -8 -8 -9 -9 -9 -9 -10 -10 -10 -11 -11 -10 -10 -11 -11 -11 -10 -10 -10 -10 -10 -11 -10 -9 -9 -9 -10
-8 -8 -8 -8 -8 -7 -7 -7 -7 -7 -7 -7 -8 -8 -8 -8 -9 -9 -9 -9 -10 -10 -10 -11 -11 -11 -11 -11 -11 -11 -11 -11 -11 -12 -11 -11 -11 -10 -10 -10 -10 -9 -10 -10
-8 -8 -8 -8 -8 -7 -7 -7 -7 -8 -8 -8 -8 -8 -8 -9 -9 -10 -9 -10 -10 -11 -11 -11 -12 -12 -12 -12 -12 -11 -11 -11 -11 -12 -12 -12 -11 -11 -11 -10 -10 -10 -10 -10
-8 -8 -8 -8 -8 -8 -7 -7 -8 -8 -8 -7 -8 -8 -9 -9 -10 -11 -10 -11 -11 -11 -11 -11 -12 -12 -12 -12 -12 -12 -11 -12 -12 -12 -12 -12 -11 -11 -11 -11 -11 -10 -10 -10
-8 -8 -8 -8 -8 -8 -7 -8 -8 -8 -8 -9 -9 -9 -10 -10 -11 -11 -11 -11 -11 -11 -11 -12 -12 -12 -12 -12 -12 -12 -11 -12 -12 -12 -12 -12 -12 -11 -11 -11 -10 -10 -10 -9
-8 -8 -8 -8 -8 -8 -8 -8 -8 -9 -9 -9 -10 -10 -11 -11 -11 -11 -11 -12 -12 -12 -12 -11 -11 -11 -11 -11 -11 -12 -12 -12 -11 -11 -11 -12 -12 -12 -12 -11 -11 -10 -10 -10
-8 -8 -8 -8 -8 -8 -8 -8 -9 -9 -9 -10 -10 -11 -11 -11 -11 -12 -12 -12 -12 -12 -12 -12 -11 -11 -11 -11 -11 -11 -11 -11 -11 -11 -11 -11 -11 -12 -12 -11 -11 -10 -10 -10
-8 -8 -8 -8 -8 -9 -9 -9 -9 -9 -10 -11 -11 -11 -11 -11 -12 -12 -12 -12 -12 -12 -12 -12 -12 -12 -12 -12 -12 -12 -12 -11 -11 -11 -11 -11 -11 -11 -11 -12 -11 -11 -10 -10
-8 -8 -8 -9 -9 -9 -9 -9 -9 -10 -11 -11 -11 -12 -12 -12 -12 -12 -12 -12 -12 -11 -12 -12 -12 -12 -12 -12 -12 -12 -12 -11 -11 -11 -11 -11 -11 -11 -11 -12 -11 -11 -10 -10
-9 -8 -9 -9 -9 -9 -9 -10 -10 -10 -11 -11 -11 -11 -12 -12 -12 -11 -11 -12 -12 -12 -12 -12 -12 -12 -12 -12 -12 -13 -12 -12 -12 -11 -11 -11 -11 -11 -12 -12 -12 -11 -11 -10
Height
5917 5919 5924 5924 5923 5924 5924 5924 5924 5923 5923 5923 5923 5922 5923 5924 5924 5923 5922 5919 5916 5913 5913 5914 5913 5911 5908 5906 5901 5898 5896 5887 5891 5895 5895 5893 5893 5891 5891 5890 5886 5890 5894 5894
5918 5919 5921 5921 5922 5922 5922 5923 5924 5922 5922 5922 5922 5923 5923 5923 5924 5923 5922 5921 5918 5915 5913 5914 5914 5912 5910 5906 5904 5901 5900 5899 5896 5895 5894 5892 5892 5891 5891 5891 5890 5891 5891 5892
5917 5920 5918 5919 5920 5921 5925 5922 5921 5921 5922 5923 5923 5923 5923 5923 5924 5923 5923 5921 5919 5916 5914 5913 5914 5912 5911 5908 5906 5903 5900 5899 5898 5895 5892 5891 5891 5890 5890 5891 5892 5892 5892 5893
5916 5917 5917 5918 5919 5920 5924 5920 5919 5919 5921 5925 5923 5929 5924 5924 5924 5923 5922 5921 5919 5916 5915 5913 5912 5911 5911 5906 5904 5902 5898 5896 5896 5895 5893 5891 5891 5891 5890 5889 5890 5890 5892 5893
5915 5915 5915 5916 5918 5918 5920 5917 5918 5918 5920 5923 5924 5928 5925 5924 5924 5922 5921 5921 5920 5918 5916 5914 5912 5910 5908 5906 5902 5901 5894 5893 5894 5894 5893 5890 5890 5892 5892 5890 5888 5890 5891 5891
5911 5912 5913 5914 5915 5916 5916 5917 5918 5918 5920 5925 5922 5925 5926 5923 5922 5921 5921 5920 5919 5917 5915 5914 5911 5909 5906 5906 5902 5898 5894 5893 5894 5892 5891 5890 5888 5890 5891 5891 5890 5888 5889 5889
5908 5909 5911 5912 5913 5915 5915 5918 5925 5924 5924 5927 5920 5922 5922 5919 5920 5919 5918 5917 5916 5915 5913 5910 5909 5908 5906 5903 5902 5899 5897 5895 5891 5889 5888 5887 5886 5885 5886 5887 5887 5887 5885 5885
5908 5909 5909 5910 5912 5916 5915 5920 5924 5922 5924 5924 5917 5921 5919 5914 5915 5916 5916 5915 5913 5910 5909 5908 5907 5904 5903 5900 5898 5896 5895 5892 5889 5886 5885 5885 5885 5882 5881 5882 5883 5883 5883 5882
5906 5907 5908 5909 5910 5913 5913 5915 5916 5919 5917 5918 5919 5915 5913 5911 5910 5910 5911 5910 5908 5906 5905 5904 5903 5900 5899 5897 5896 5893 5891 5890 5888 5885 5882 5879 5879 5880 5879 5879 5880 5879 5879 5879
5903 5906 5906 5907 5908 5909 5911 5912 5916 5916 5918 5916 5917 5912 5912 5908 5907 5907 5905 5904 5903 5900 5900 5899 5898 5897 5895 5893 5891 5891 5889 5885 5883 5880 5877 5874 5874 5875 5876 5874 5874 5876 5875 5874
5901 5904 5905 5906 5906 5908 5908 5910 5909 5910 5910 5910 5911 5912 5903 5903 5901 5900 5899 5896 5895 5892 5892 5891 5890 5890 5890 5890 5887 5885 5884 5883 5880 5876 5870 5870 5870 5871 5871 5869 5868 5871 5871 5872
5899 5902 5903 5905 5901 5902 5903 5904 5905 5907 5908 5905 5901 5901 5896 5897 5895 5893 5891 5888 5886 5885 5884 5883 5883 5883 5882 5883 5882 5881 5879 5878 5876 5873 5870 5868 5867 5868 5868 5868 5867 5869 5868 5869
5896 5897 5899 5898 5898 5898 5897 5897 5899 5899 5898 5898 5895 5897 5887 5887 5886 5885 5883 5881 5878 5875 5874 5873 5873 5874 5874 5873 5873 5873 5872 5871 5869 5868 5864 5862 5861 5863 5860 5861 5861 5861 5864 5862
5891 5893 5895 5898 5892 5893 5892 5892 5892 5893 5892 5891 5889 5882 5881 5878 5878 5875 5874 5871 5869 5867 5866 5865 5864 5864 5864 5864 5863 5862 5862 5862 5861 5860 5857 5856 5854 5857 5855 5855 5856 5856 5856 5854
5886 5887 5886 5886 5887 5888 5886 5885 5883 5883 5882 5880 5880 5876 5873 5870 5868 5867 5865 5862 5858 5856 5855 5854 5853 5852 5852 5853 5852 5851 5850 5850 5851 5850 5849 5848 5847 5847 5850 5849 5850 5850 5849 5850
5878 5879 5880 5880 5879 5880 5879 5878 5877 5875 5874 5872 5869 5867 5862 5860 5858 5856 5854 5850 5847 5844 5843 5842 5840 5840 5839 5840 5840 5838 5837 5838 5839 5840 5840 5840 5840 5839 5840 5842 5840 5810 5838 5843
5872 5872 5872 5872 5870 5871 5871 5870 5870 5868 5865 5863 5860 5856 5853 5850 5847 5845 5842 5839 5836 5833 5830 5828 5828 5827 5826 5826 5827 5827 5827 5827 5828 5829 5829 5830 5830 5831 5832 5833 5832 5831 5833 5836
5864 5865 5865 5865 5864 5863 5862 5863 5861 5859 5856 5853 5850 5846 5842 5837 5834 5830 5828 5826 5824 5821 5817 5814 5812 5811 5811 5811 5812 5814 5814 5814 5815 5817 5818 5819 5820 5822 5821 5823 5824 5825 5826 5830
5857 5858 5857 5858 5857 5856 5853 5854 5851 5849 5845 5842 5839 5835 5830 5826 5822 5818 5815 5812 5809 5807 5805 5803 5800 5798 5796 5796 5797 5799 5800 5800 5802 5803 5806 5807 5808 5809 5812 5814 5815 5817 5818 5821
5851 5850 5851 5849 5849 5848 5844 5844 5842 5838 5835 5830 5828 5823 5818 5814 5811 5804 5802 5799 5796 5794 5792 5789 5787 5786 5785 5783 5782 5781 5782 5784 5785 5787 5788 5792 5795 5796 5799 5802 5804 5806 5809 5810
5844 5844 5844 5842 5842 5839 5838 5835 5831 5827 5826 5818 5814 5810 5806 5802 5798 5795 5790 5786 5784 5782 5780 5778 5776 5774 5773 5772 5770 5770 5769 5768 5768 5769 5770 5773 5778 5781 5783 5787 5791 5793 5796 5799
5838 5838 5837 5836 5834 5831 5828 5824 5822 5817 5811 5807 5802 5797 5792 5789 5785 5781 5777 5775 5774 5771 5769 5766 5764 5762 5760 5759 5758 5758 5756 5755 5754 5754 5753 5755 5758 5764 5766 5770 5775 5780 5783 5786
5831 5831 5830 5830 5824 5821 5817 5813 5809 5805 5800 5795 5789 5785 5780 5777 5773 5770 5767 5765 5763 5760 5756 5753 5749 5747 5746 5744 5742 5741 5742 5740 5739 5739 5739 5740 5742 5745 5749 5753 5757 5764 5768 5773
5824 5823 5821 5819 5816 5813 5807 5803 5797 5793 5788 5783 5778 5774 5770 5766 5762 5759 5757 5755 5753 5749 5745 5740 5735 5732 5728 5727 5726 5725 5724 5722 5721 5722 5723 5725 5727 5729 5731 5735 5738 5743 5751 5756
5818 5816 5814 5811 5807 5804 5797 5793 5787 5782 5778 5773 5769 5764 5760 5755 5753 5749 5746 5743 5740 5735 5731 5726 5721 5717 5714 5711 5709 5708 5705 5703 5704 5704 5706 5708 5710 5714 5717 5718 5722 5727 5733 5740
5810 5808 5805 5801 5797 5793 5788 5782 5775 5771 5767 5762 5757 5754 5750 5744 5740 5735 5731 5727 5723 5718 5715 5710 5706 5700 5696 5695 5693 5691 5690 5688 5688 5689 5689 5690 5692 5696 5700 5703 5707 5711 5716 5722
Wind_Speed
12 12 4 5 5 5 5 6 9 8 4 3 4 7 6 4 4 3 2 12 14 17 14 12 13 14 13 12 13 12 10 13 6 7 6 7 7 8 8 9 2 15 13 11
9 8 5 3 3 4 6 6 7 7 2 1 3 4 2 9 5 5 4 9 14 15 10 14 14 19 17 14 13 12 10 10 8 8 7 5 6 5 6 0 10 10 10 9
5 7 3 1 3 5 10 5 5 5 4 3 1 3 10 9 7 7 5 9 17 14 11 12 11 14 17 17 17 11 9 11 12 10 9 6 5 4 4 3 9 11 12 12
3 3 1 2 5 5 4 6 4 5 4 1 4 1 9 13 11 8 7 9 17 13 8 12 15 17 19 18 12 13 10 7 10 13 11 8 6 6 6 7 9 10 11 13
6 5 3 4 6 5 6 5 5 5 6 3 2 6 5 8 10 9 8 9 10 10 9 13 15 17 17 16 16 19 3 5 8 9 11 8 9 9 10 9 10 10 12 14
8 8 5 6 4 4 4 6 7 5 5 1 6 7 7 5 6 10 12 13 10 9 9 12 11 13 18 16 15 19 17 6 9 11 12 12 11 13 12 12 12 13 14 14
10 9 9 6 4 6 3 3 5 4 3 7 9 3 14 11 8 9 11 13 13 14 13 14 15 17 13 15 14 16 17 14 12 11 13 11 13 15 16 14 16 17 17 17
8 10 8 7 7 7 3 6 4 3 6 8 16 5 11 15 12 9 8 9 15 21 20 17 16 19 16 16 15 19 18 16 14 15 10 16 17 17 18 19 18 19 21 19
10 14 10 10 9 7 10 2 12 5 10 6 10 11 12 13 14 14 11 11 16 20 21 20 18 14 15 16 15 19 20 15 13 17 18 19 20 20 19 19 22 22 21 23
13 10 12 11 10 11 9 14 4 7 7 9 10 14 10 15 16 16 17 18 18 23 26 22 21 18 19 20 19 14 17 21 16 18 17 17 14 16 17 22 21 24 26 21
12 14 13 15 16 13 11 9 13 11 12 13 14 12 22 18 18 18 19 22 24 25 25 25 27 22 19 22 23 23 19 18 15 16 16 11 15 17 18 25 22 31 29 26
17 14 12 15 18 17 16 17 16 14 14 20 25 22 27 21 22 22 23 24 26 26 26 27 26 25 23 24 26 24 24 21 16 16 16 16 21 21 19 21 24 26 23 27
15 14 14 16 19 20 23 23 21 23 27 26 28 20 33 27 26 25 26 27 29 31 30 30 29 28 29 31 34 28 25 25 23 22 25 25 25 18 23 23 25 15 22 22
22 20 18 15 21 23 23 25 25 24 24 24 24 33 32 32 29 31 31 32 31 33 34 34 35 35 34 35 37 34 32 29 27 26 27 28 26 22 22 25 24 22 16 22
25 27 29 30 30 28 28 28 28 25 28 31 30 33 34 36 35 35 34 35 37 37 38 37 38 40 39 38 39 40 40 37 33 31 29 29 27 26 23 21 27 25 25 22
24 25 25 28 30 29 29 27 26 27 30 31 33 34 37 35 36 37 38 38 39 40 40 40 42 42 43 42 42 45 45 42 39 36 34 31 30 30 26 24 20 13 26 25
25 25 23 26 33 26 27 27 25 30 32 32 34 37 38 39 39 38 38 38 39 40 42 44 42 42 44 45 46 45 45 44 43 40 39 36 33 32 31 29 30 23 25 25
23 24 27 25 28 27 29 25 26 29 32 34 36 38 40 42 42 41 41 41 39 40 43 44 45 46 46 46 47 46 45 44 42 40 40 37 37 36 35 34 34 32 30 27
18 20 23 23 25 27 27 23 30 32 36 37 40 41 42 42 43 42 43 41 42 42 42 44 47 50 50 48 49 49 48 49 48 46 44 43 42 40 37 39 40 41 41 37
20 22 24 24 24 27 30 30 32 35 38 41 40 42 42 42 41 41 39 37 38 38 39 40 42 43 44 46 48 51 52 52 52 52 51 47 47 46 43 40 44 44 46 47
22 22 22 24 26 31 32 32 36 39 41 42 44 44 42 40 38 37 38 37 34 33 30 31 33 33 33 35 38 40 44 46 48 53 56 55 52 50 49 46 44 47 48 49
22 21 23 25 29 32 35 37 38 40 43 44 44 42 40 38 38 38 36 30 27 29 33 36 38 39 41 41 40 40 42 44 45 46 49 52 56 54 57 53 48 46 46 50
23 23 26 26 33 34 37 39 40 42 43 43 42 39 39 39 38 35 32 32 33 37 41 43 46 44 43 42 44 45 43 45 48 48 48 47 49 52 56 60 60 56 52 50
22 24 27 29 32 34 38 40 43 43 41 39 39 39 39 38 35 34 35 37 41 45 46 46 45 44 46 47 47 48 47 47 47 49 50 50 47 46 48 54 57 56 54 54
24 26 28 30 33 34 39 41 42 41 38 37 38 36 34 35 35 37 40 43 46 46 43 44 45 46 48 49 47 46 46 46 45 45 45 49 52 50 45 47 52 54 51 51
24 26 28 31 34 37 39 40 42 40 37 37 36 34 33 36 39 43 46 46 45 46 44 44 44 46 47 41 42 42 41 45 44 43 46 47 49 51 48 46 46 49 53 53
Wind_Direction
137 129 167 130 80 45 13 337 314 312 360 296 238 233 239 247 197 185 33 321 340 334 348 6 357 7 351 13 357 347 342 334 322 278 281 286 280 296 304 307 81 167 187 202
147 134 131 86 49 8 343 334 322 300 18 252 206 247 206 177 196 232 270 345 339 325 5 55 38 30 29 352 356 342 333 311 277 276 276 267 259 271 290 262 190 191 210 214
168 184 129 35 342 351 325 320 295 311 351 71 16 68 180 191 213 263 313 336 342 321 330 357 22 19 12 360 341 333 326 317 313 287 286 288 252 244 261 196 194 216 220 222
212 216 231 295 308 312 316 306 319 330 295 298 91 342 186 212 214 261 313 310 323 315 334 350 358 354 357 335 336 306 309 311 317 313 300 302 293 268 241 212 231 236 227 230
245 270 274 285 269 272 259 304 319 298 281 39 35 92 271 227 237 259 275 288 293 304 343 341 340 341 350 28 357 15 241 310 310 304 305 305 308 289 269 243 223 224 244 242
254 267 273 266 266 269 290 333 336 290 287 48 262 143 285 232 270 274 275 269 259 289 311 314 329 332 320 345 11 7 10 294 311 303 301 302 294 295 281 267 254 237 236 246
270 274 265 248 233 273 342 12 327 315 286 218 278 251 240 261 250 263 288 248 249 273 285 283 292 327 330 331 331 1 3 355 332 312 287 280 280 283 283 276 266 255 243 242
242 269 244 227 232 222 225 198 235 282 255 246 303 256 268 273 272 258 258 269 267 270 271 278 288 305 298 317 321 334 339 344 350 348 312 295 284 272 271 271 271 265 258 247
224 226 232 231 217 210 273 241 235 268 294 300 268 296 323 293 282 282 275 258 257 257 269 288 298 301 301 298 303 313 323 328 324 324 306 286 266 269 271 276 271 268 268 265
231 235 240 255 239 257 234 238 322 303 278 279 276 296 270 289 280 282 285 278 263 260 264 278 289 294 289 296 299 300 309 325 327 315 308 271 257 271 280 269 265 271 265 261
234 236 257 252 248 231 251 275 266 260 285 281 300 288 283 299 292 285 277 273 274 274 273 272 279 285 278 282 289 299 301 299 317 322 315 262 264 271 273 288 309 278 275 268
238 248 251 244 250 245 245 252 267 272 281 296 297 305 293 291 288 286 282 278 277 276 275 276 280 283 284 273 286 286 288 284 282 290 298 303 289 279 282 294 290 267 258 261
240 248 261 270 256 257 254 259 264 271 281 286 288 289 293 302 296 293 289 284 282 281 280 278 279 277 275 271 275 279 279 279 279 277 278 285 295 283 289 281 291 301 273 256
241 244 242 233 239 239 267 265 268 277 282 286 287 295 297 295 296 295 293 289 282 278 275 272 272 269 268 268 273 276 280 275 276 276 270 275 278 279 293 276 267 273 274 289
237 239 249 250 248 255 268 277 285 286 290 284 285 286 290 292 294 292 289 286 282 279 278 274 268 268 270 270 270 271 273 272 271 270 270 267 267 263 269 287 263 264 261 274
247 258 249 257 260 262 271 280 285 287 286 286 288 290 291 291 291 289 287 285 284 282 278 272 271 270 268 267 266 268 270 271 271 268 266 262 259 260 260 259 251 245 238 268
264 268 271 268 270 274 278 278 283 282 286 289 290 290 292 292 290 289 287 283 279 277 276 275 272 269 267 266 266 268 270 272 273 272 270 266 256 254 252 253 256 256 259 271
262 263 268 270 274 276 277 283 283 284 287 289 291 292 292 294 294 292 289 286 279 276 273 271 270 268 264 263 263 263 264 264 264 262 266 267 266 262 258 253 248 247 252 253
267 263 266 269 275 281 285 287 290 292 291 290 292 293 293 292 293 291 288 285 281 278 274 272 271 271 271 270 269 267 266 266 264 261 259 258 260 260 259 251 250 246 246 244
271 273 275 280 278 283 286 294 293 290 291 294 295 295 296 296 292 288 289 283 280 278 276 274 273 271 270 269 268 270 268 264 261 262 261 257 257 257 254 250 245 245 243 244
272 270 272 275 278 282 289 293 293 293 297 298 299 298 296 291 288 287 286 285 285 283 282 281 278 274 272 272 272 272 271 269 268 264 261 258 254 254 253 251 244 243 244 246
270 272 273 276 283 288 294 294 295 297 298 297 298 297 294 292 293 291 288 284 283 285 287 285 280 276 274 275 273 270 268 268 267 264 264 263 260 255 251 249 246 246 242 245
271 274 279 286 289 294 295 296 297 298 298 300 299 297 294 294 292 287 280 281 285 289 293 290 290 286 282 275 275 276 277 270 264 262 263 263 262 259 256 254 252 248 247 248
275 282 286 289 290 294 296 298 299 301 302 300 297 296 295 292 288 283 278 281 287 288 292 291 290 287 282 281 279 278 277 270 267 262 258 258 258 258 255 252 250 248 244 242
283 284 288 292 296 299 297 300 301 301 301 297 296 296 292 289 287 286 282 282 285 289 290 290 287 287 283 279 278 276 273 272 265 263 264 259 255 252 254 252 247 245 242 239
284 291 295 298 302 301 302 302 299 298 297 298 300 298 295 294 294 294 295 296 294 292 290 291 289 290 284 277 279 274 271 269 268 270 272 267 259 252 248 251 248 242 239 238